IRIDIUM 62 [B] (25285 NORAD) Tracking and Keplerian Element Data

This shows tracking and keplerian element data for the satellite.

Feedback or suggestion? Click here.




ElementValue
Catalog25285
NameIRIDIUM 62 [B]
Epoch Orbit6174
Epoch Day198.67199746
Epoch Year2018
RAAN58.6202
Inclination86.4198
Eccentricity0.0002334
Argument of Perigee91.0757
Mean Anonmoly269.0709
Mean Motion14.38608482
Decay Rate8.8E-07
L11 25285U 98021A 18198.67199746 .00000088 00000-0 22216-4 0 9991
L22 25285 86.4198 58.6202 0002334 91.0757 269.0709 14.38608482 61749

Live tracking and technical data element details for IRIDIUM 62 [B] (NORAD 25285). IRIDIUM 62 [B] can be tracked NOW for your location showing map with azimuth and elevation plus other details from your city location.

Track the satellite on the map from your city or location and see movement details for azimuth, elevation, latitude, longitude, range, height, and movement on the map or in text.







IsCatalogInMostPopularTable: catalog: 25285, numindb: 28
Update: records affected: 1



GetName: 25285 IRIDIUM 62 [B]

Hit Count: updated at: Fri, 20 Jul 2018 06:55:50 GMT